Starlink 34255

operational
NORAD ID: 65417 Int'l Des: 2025-192 Owner: SPXS Country: US Constellation: starlink
LEOCIRCULAR

Über Starlink 34255

Beschreibung wird geladen...

Live-Position

3D-Globus wird geladen...

Nächste Überflüge

Höhenverlauf

Altitude vs Time

uPlot chart will show altitude changes over time

Zweizeiliger Elementsatz

1 65417U 25192P 25341.62829508 .00067603 00000-0 16845-2 0 9995
2 65417 53.1594 305.3353 0001635 85.5079 274.6113 15.39630654 15218
Epoch: 7. Dez. 2025 • Age: 14 hours

Aktueller Status

Höhe 447.7 km
Geschwindigkeit 7.64 km/s
Subsatellitenpunkt 0.75°N, 149.36°E
Startdatum 31. Aug. 2025
Alter 0.2 years
Typ internet

Technische Details

Klassifizierung Payload
Masse 575.00 kg
Trockenmasse 530.00 kg
Gesamtmasse 575.00 kg
Länge 0.30 m
Durchmesser 4.10 m
Spannweite 29.00 m
Form Box + pan
Hersteller SPXS
Bus-Typ Starlink V2MO
Phasenstatus In Orbit
Besitzer/Staat SPXS/US

Große Konstellationen

Loading constellations...